Centralia, IL

7:41 AM CDT on April 25, 2017 (GMT -0500)
Centralia Municipal

Weather History for KENL - January, 2013

Change the Weather History Date:

Sunday, January 20, 2013

  Actual Average (KSLO) Record (KSLO)
Temperature  
Mean Temperature 36 °F -  
Max Temperature 46 °F 37 °F 60 °F (1974)
Min Temperature 27 °F 20 °F -17 °F (1985)
Degree Days  
Heating Degree Days 28    
Moisture  
Dew Point 19 °F    
Average Humidity 58    
Maximum Humidity 76    
Minimum Humidity 43    
Precipitation  
Precipitation 0.00 in - - ()
Sea Level Pressure  
Sea Level Pressure 30.26 in    
Wind  
Wind Speed 11 mph (NNW)    
Max Wind Speed 20 mph    
Max Gust Speed 24 mph    
Visibility 10 miles    
Events      
Averages and records for this station are not official NWS values.
T = Trace of Precipitation, MM = Missing Value Source: NWS Daily Summary

Daily Weather History Graph

Daily Weather History Graph

Search for Another Location

Airport or City:

Trip Planner

Search our weather history database for the weather conditions in past years. The results will help you decide how hot, cold, wet, or windy it might be!

Date:

Astronomy

Jan. 20, 2013 Rise Set
Actual Time 7:10 AM CST 5:05 PM CST
Civil Twilight 6:41 AM CST 5:33 PM CST
Nautical Twilight 6:09 AM CST 6:06 PM CST
Astronomical Twilight 5:37 AM CST 6:37 PM CST
Moon 12:06 PM CST (1/20) 1:42 AM CST (1/20)
Length of Visible Light 10h 52m
Length of Day
9h 55m
Waxing Gibbous, 66% of the Moon is Illuminated
Jan 20
Waxing Gibbous
Jan 26
Full
Feb 3
Last Quarter
Feb 10
New
Feb 17
First Quarter

Hourly Weather History & Observations

Time (CST) Temp. Windchill Dew Point Humidity Pressure Visibility Wind Dir Wind Speed Gust Speed Precip Events Conditions
12:15 AM 46.2 °F 40.1 °F 32.0 °F 58% 30.09 in 10.0 mi WNW 13.8 mph 18.4 mph N/A   Clear
12:35 AM 45.9 °F 40.0 °F 31.1 °F 56% 30.10 in 10.0 mi NW 12.7 mph 18.4 mph N/A   Clear
12:55 AM 45.1 °F 39.1 °F 31.1 °F 58% 30.11 in 10.0 mi WNW 12.7 mph - N/A   Clear
1:15 AM 45.3 °F 39.0 °F 30.9 °F 57% 30.13 in 10.0 mi NW 13.8 mph 20.7 mph N/A   Clear
1:35 AM 44.2 °F 38.0 °F 30.7 °F 59% 30.14 in 10.0 mi NW 12.7 mph 20.7 mph N/A   Clear
1:55 AM 43.9 °F 37.2 °F 30.6 °F 59% 30.15 in 10.0 mi NW 13.8 mph - N/A   Clear
2:15 AM 42.6 °F 36.3 °F 30.9 °F 63% 30.16 in 10.0 mi WNW 11.5 mph - N/A   Clear
2:35 AM 41.5 °F 35.4 °F 31.1 °F 66% 30.17 in 10.0 mi WNW 10.4 mph - N/A   Clear
2:55 AM 41.5 °F 35.4 °F 30.7 °F 65% 30.17 in 10.0 mi NW 10.4 mph - N/A   Clear
3:15 AM 40.3 °F 34.4 °F 30.2 °F 67% 30.18 in 10.0 mi WNW 9.2 mph - N/A   Clear
3:35 AM 39.7 °F 32.7 °F 29.1 °F 66% 30.18 in 10.0 mi WNW 11.5 mph - N/A   Clear
3:55 AM 38.8 °F 32.6 °F 28.4 °F 66% 30.19 in 10.0 mi NW 9.2 mph - N/A   Clear
4:15 AM 38.1 °F 29.8 °F 27.3 °F 65% 30.20 in 10.0 mi NNW 13.8 mph 19.6 mph N/A   Clear
4:35 AM 36.3 °F 25.8 °F 27.1 °F 69% 30.21 in 10.0 mi NNW 19.6 mph - N/A   Clear
4:55 AM 33.4 °F 22.0 °F 26.4 °F 75% 30.23 in 10.0 mi NNW 19.6 mph 24.2 mph N/A   Clear
5:15 AM 32.4 °F 22.1 °F 25.7 °F 76% 30.24 in 10.0 mi NNW 15.0 mph - N/A   Clear
5:35 AM 32.0 °F 23.0 °F 23.9 °F 72% 30.25 in 10.0 mi NNW 11.5 mph 20.7 mph N/A   Clear
5:55 AM 31.1 °F 22.4 °F 23.0 °F 72% 30.26 in 10.0 mi NNW 10.4 mph - N/A   Clear
6:15 AM 30.2 °F 19.3 °F 17.6 °F 60% 30.26 in 10.0 mi NNW 15.0 mph - N/A   Clear
6:35 AM 29.8 °F 19.8 °F 16.7 °F 58% 30.27 in 10.0 mi NNW 12.7 mph - N/A   Clear
6:55 AM 29.7 °F 17.8 °F 14.5 °F 53% 30.27 in 10.0 mi NNW 17.3 mph - N/A   Clear
7:15 AM 29.1 °F 20.6 °F 14.7 °F 55% 30.28 in 10.0 mi North 9.2 mph - N/A   Clear
7:35 AM 28.8 °F 17.9 °F 13.1 °F 52% 30.29 in 10.0 mi NNW 13.8 mph - N/A   Clear
7:55 AM 28.8 °F 18.4 °F 13.6 °F 53% 30.30 in 10.0 mi NNW 12.7 mph - N/A   Clear
8:15 AM 28.4 °F 17.5 °F 14.0 °F 55% 30.31 in 10.0 mi NNW 13.8 mph 18.4 mph N/A   Clear
8:35 AM 28.9 °F 19.2 °F 14.7 °F 55% 30.31 in 10.0 mi North 11.5 mph - N/A   Clear
8:55 AM 28.9 °F 19.2 °F 14.4 °F 55% 30.32 in 10.0 mi NNW 11.5 mph - N/A   Clear
9:15 AM 29.3 °F 20.8 °F 14.9 °F 55% 30.31 in 10.0 mi North 9.2 mph - N/A   Clear
9:35 AM 29.3 °F 22.3 °F 15.8 °F 57% 30.33 in 10.0 mi NNW 6.9 mph - N/A   Clear
9:55 AM 30.2 °F 23.4 °F 16.3 °F 56% 30.34 in 10.0 mi North 6.9 mph - N/A   Clear
10:15 AM 30.7 °F 23.3 °F 16.7 °F 56% 30.33 in 10.0 mi NNW 8.1 mph - N/A   Clear
10:35 AM 31.1 °F 25.4 °F 16.0 °F 54% 30.32 in 10.0 mi North 5.8 mph - N/A   Clear
10:55 AM 31.3 °F 25.6 °F 15.1 °F 51% 30.33 in 10.0 mi North 5.8 mph - N/A   Clear
11:15 AM 31.8 °F - 15.3 °F 50% 30.32 in 10.0 mi Calm Calm - N/A   Clear
11:35 AM 32.2 °F 26.7 °F 14.7 °F 49% 30.30 in 10.0 mi North 5.8 mph - N/A   Clear
11:55 AM 33.1 °F 27.7 °F 15.6 °F 49% 30.29 in 10.0 mi NNW 5.8 mph - N/A   Clear
12:15 PM 33.3 °F 28.9 °F 14.2 °F 46% 30.28 in 10.0 mi WNW 4.6 mph - N/A   Clear
12:35 PM 33.8 °F 28.6 °F 13.5 °F 43% 30.27 in 10.0 mi North 5.8 mph - N/A   Clear
12:55 PM 34.0 °F 31.0 °F 14.2 °F 44% 30.26 in 10.0 mi West 3.5 mph - N/A   Clear
1:15 PM 35.1 °F 29.3 °F 16.9 °F 48% 30.26 in 10.0 mi North 6.9 mph - N/A   Clear
1:35 PM 35.4 °F 29.7 °F 17.6 °F 48% 30.26 in 10.0 mi NNW 6.9 mph - N/A   Clear
1:55 PM 35.2 °F 27.6 °F 15.6 °F 45% 30.26 in 10.0 mi NW 10.4 mph - N/A   Clear
2:15 PM 34.5 °F 28.6 °F 14.4 °F 44% 30.28 in 10.0 mi North 6.9 mph - N/A   Clear
2:35 PM 34.7 °F 28.1 °F 17.1 °F 49% 30.28 in 10.0 mi WNW 8.1 mph - N/A   Clear
2:55 PM 33.8 °F 27.0 °F 17.6 °F 52% 30.29 in 10.0 mi NW 8.1 mph - N/A   Unknown
3:15 PM 33.8 °F 25.8 °F 17.8 °F 52% 30.29 in 10.0 mi NW 10.4 mph - N/A   Clear
3:35 PM 33.6 °F 26.8 °F 17.2 °F 51% 30.30 in 10.0 mi NW 8.1 mph - N/A   Clear
3:55 PM 32.9 °F 25.3 °F 18.3 °F 55% 30.28 in 10.0 mi NNW 9.2 mph - N/A   Scattered Clouds
4:15 PM 32.5 °F 23.7 °F 18.0 °F 55% 30.27 in 10.0 mi North 11.5 mph - N/A   Overcast
4:35 PM 32.0 °F 24.2 °F 16.3 °F 52% 30.28 in 10.0 mi North 9.2 mph - N/A   Mostly Cloudy
4:55 PM 31.5 °F 23.5 °F 17.8 °F 57% 30.28 in 10.0 mi NNW 9.2 mph - N/A   Scattered Clouds
5:15 PM 31.1 °F 22.4 °F 17.8 °F 58% 30.29 in 10.0 mi NNW 10.4 mph - N/A   Scattered Clouds
5:35 PM 30.2 °F 23.4 °F 16.9 °F 58% 30.28 in 10.0 mi NNW 6.9 mph - N/A   Overcast
5:55 PM 29.7 °F 24.7 °F 18.1 °F 62% 30.28 in 10.0 mi NNW 4.6 mph - N/A   Mostly Cloudy
6:15 PM 29.3 °F 22.3 °F 18.1 °F 63% 30.28 in 10.0 mi North 6.9 mph - N/A   Scattered Clouds
6:35 PM 28.4 °F 22.2 °F 17.6 °F 64% 30.29 in 10.0 mi NNW 5.8 mph - N/A   Clear
6:55 PM 28.8 °F 21.7 °F 17.1 °F 62% 30.28 in 10.0 mi North 6.9 mph - N/A   Clear
7:15 PM 28.4 °F 20.4 °F 17.8 °F 64% 30.27 in 10.0 mi North 8.1 mph - N/A   Clear
7:35 PM 28.2 °F 21.0 °F 18.7 °F 67% 30.28 in 10.0 mi NNW 6.9 mph - N/A   Clear
7:55 PM 27.9 °F 20.6 °F 18.3 °F 67% 30.28 in 10.0 mi NNW 6.9 mph - N/A   Clear
8:15 PM 27.9 °F 21.5 °F 18.0 °F 66% 30.28 in 10.0 mi NNW 5.8 mph - N/A   Scattered Clouds
8:35 PM 27.9 °F 21.5 °F 18.1 °F 67% 30.28 in 10.0 mi NNW 5.8 mph - N/A   Scattered Clouds
8:55 PM 27.9 °F 19.8 °F 18.3 °F 67% 30.28 in 10.0 mi NNW 8.1 mph - N/A   Mostly Cloudy
9:15 PM 28.2 °F 18.9 °F 17.6 °F 64% 30.28 in 10.0 mi NNW 10.4 mph - N/A   Overcast
9:35 PM 28.2 °F 18.9 °F 16.9 °F 63% 30.27 in 10.0 mi North 10.4 mph - N/A   Overcast
9:55 PM 27.9 °F 19.1 °F 14.7 °F 58% 30.28 in 10.0 mi North 9.2 mph - N/A   Overcast
10:15 PM 27.9 °F 19.1 °F 15.4 °F 60% 30.28 in 10.0 mi North 9.2 mph - N/A   Overcast
10:35 PM 27.5 °F 20.2 °F 15.4 °F 61% 30.27 in 10.0 mi NNW 6.9 mph - N/A   Overcast
10:55 PM 27.5 °F 18.6 °F 16.3 °F 63% 30.27 in 10.0 mi North 9.2 mph - N/A   Overcast
11:15 PM 27.3 °F 19.1 °F 15.3 °F 61% 30.26 in 10.0 mi NNW 8.1 mph - N/A   Overcast
11:35 PM 27.3 °F 19.9 °F 15.8 °F 62% 30.26 in 10.0 mi NNW 6.9 mph - N/A   Overcast
11:55 PM 27.1 °F 18.9 °F 14.5 °F 59% 30.25 in 10.0 mi NNW 8.1 mph - N/A   Overcast